owner,sensor,date,latitude,longitude,sea_surface_height_above_sea_level,qcFlag 
COMPS,ioos:station:USF.COMPS:SHP:1,2011-09-01T00:00:00Z,30.0600,-84.2910,0.235,1111122 
COMPS,ioos:station:USF.COMPS:SHP:1,2011-09-01T00:06:00Z,30.0600,-84.2910,0.204,1111122 
COMPS,ioos:station:USF.COMPS:SHP:1,2011-09-01T00:12:00Z,30.0600,-84.2910,0.172,1111122 
COMPS,ioos:station:USF.COMPS:SHP:1,2011-09-01T00:18:00Z,30.0600,-84.2910,0.139,1111122 
COMPS,ioos:station:USF.COMPS:SHP:1,2011-09-01T00:24:00Z,30.0600,-84.2910,0.115,1111122 
COMPS,ioos:station:USF.COMPS:SHP:1,2011-09-01T00:30:00Z,30.0600,-84.2910,0.099,1111122 
COMPS,ioos:station:USF.COMPS:SHP:1,2011-09-01T00:36:00Z,30.0600,-84.2910,0.081,1111122 
COMPS,ioos:station:USF.COMPS:SHP:1,2011-09-01T00:42:00Z,30.0600,-84.2910,0.066,1111122 
COMPS,ioos:station:USF.COMPS:SHP:1,2011-09-01T00:48:00Z,30.0600,-84.2910,0.047,1111122 
COMPS,ioos:station:USF.COMPS:SHP:1,2011-09-01T00:54:00Z,30.0600,-84.2910,0.026,1111122 
COMPS,ioos:station:USF.COMPS:SHP:1,2011-09-01T01:00:00Z,30.0600,-84.2910,0.012,1111122 
COMPS,ioos:station:USF.COMPS:SHP:1,2011-09-01T01:06:00Z,30.0600,-84.2910,0.008,1111122 
COMPS,ioos:station:USF.COMPS:SHP:1,2011-09-01T01:12:00Z,30.0600,-84.2910,-0.001,1111122 
COMPS,ioos:station:USF.COMPS:SHP:1,2011-09-01T01:18:00Z,30.0600,-84.2910,-0.02,1111122 
COMPS,ioos:station:USF.COMPS:SHP:1,2011-09-01T01:24:00Z,30.0600,-84.2910,-0.037,1111122 
COMPS,ioos:station:USF.COMPS:SHP:1,2011-09-01T01:30:00Z,30.0600,-84.2910,-0.055,1111122 
COMPS,ioos:station:USF.COMPS:SHP:1,2011-09-01T01:36:00Z,30.0600,-84.2910,-0.077,1111122 
COMPS,ioos:station:USF.COMPS:SHP:1,2011-09-01T01:42:00Z,30.0600,-84.2910,-0.092,1111122 
COMPS,ioos:station:USF.COMPS:SHP:1,2011-09-01T01:48:00Z,30.0600,-84.2910,-0.1,1111122 
COMPS,ioos:station:USF.COMPS:SHP:1,2011-09-01T01:54:00Z,30.0600,-84.2910,-0.111,1111122 
COMPS,ioos:station:USF.COMPS:SHP:1,2011-09-01T02:00:00Z,30.0600,-84.2910,-0.116,1111122 
COMPS,ioos:station:USF.COMPS:SHP:1,2011-09-01T02:06:00Z,30.0600,-84.2910,-0.11,1111122 
COMPS,ioos:station:USF.COMPS:SHP:1,2011-09-01T02:12:00Z,30.0600,-84.2910,-0.111,1111122 
COMPS,ioos:station:USF.COMPS:SHP:1,2011-09-01T02:18:00Z,30.0600,-84.2910,-0.131,1111122 
COMPS,ioos:station:USF.COMPS:SHP:1,2011-09-01T02:24:00Z,30.0600,-84.2910,-0.148,1111122 
COMPS,ioos:station:USF.COMPS:SHP:1,2011-09-01T02:30:00Z,30.0600,-84.2910,-0.161,1111122 
COMPS,ioos:station:USF.COMPS:SHP:1,2011-09-01T02:36:00Z,30.0600,-84.2910,-0.167,1111122 
COMPS,ioos:station:USF.COMPS:SHP:1,2011-09-01T02:42:00Z,30.0600,-84.2910,-0.157,1111122 
COMPS,ioos:station:USF.COMPS:SHP:1,2011-09-01T02:48:00Z,30.0600,-84.2910,-0.14,1111122 
COMPS,ioos:station:USF.COMPS:SHP:1,2011-09-01T02:54:00Z,30.0600,-84.2910,-0.133,1111122 
COMPS,ioos:station:USF.COMPS:SHP:1,2011-09-01T03:00:00Z,30.0600,-84.2910,-0.13,1111122 
COMPS,ioos:station:USF.COMPS:SHP:1,2011-09-01T03:06:00Z,30.0600,-84.2910,-0.134,1111122 
COMPS,ioos:station:USF.COMPS:SHP:1,2011-09-01T03:12:00Z,30.0600,-84.2910,-0.146,1111122 
COMPS,ioos:station:USF.COMPS:SHP:1,2011-09-01T03:18:00Z,30.0600,-84.2910,-0.157,1111122 
COMPS,ioos:station:USF.COMPS:SHP:1,2011-09-01T03:24:00Z,30.0600,-84.2910,-0.155,1111122 
COMPS,ioos:station:USF.COMPS:SHP:1,2011-09-01T03:30:00Z,30.0600,-84.2910,-0.14,1111122 
COMPS,ioos:station:USF.COMPS:SHP:1,2011-09-01T03:36:00Z,30.0600,-84.2910,-0.127,1111122 
COMPS,ioos:station:USF.COMPS:SHP:1,2011-09-01T03:42:00Z,30.0600,-84.2910,-0.111,1111122 
COMPS,ioos:station:USF.COMPS:SHP:1,2011-09-01T03:48:00Z,30.0600,-84.2910,-0.085,1111122 
COMPS,ioos:station:USF.COMPS:SHP:1,2011-09-01T03:54:00Z,30.0600,-84.2910,-0.064,1111122 
COMPS,ioos:station:USF.COMPS:SHP:1,2011-09-01T19:00:00Z,30.0600,-84.2910,0.098,1111122 
COMPS,ioos:station:USF.COMPS:SHP:1,2011-09-01T19:06:00Z,30.0600,-84.2910,0.128,1111122 
COMPS,ioos:station:USF.COMPS:SHP:1,2011-09-01T19:12:00Z,30.0600,-84.2910,0.158,1111122 
COMPS,ioos:station:USF.COMPS:SHP:1,2011-09-01T19:18:00Z,30.0600,-84.2910,0.184,1111122 
COMPS,ioos:station:USF.COMPS:SHP:1,2011-09-01T19:24:00Z,30.0600,-84.2910,0.211,1111122 
COMPS,ioos:station:USF.COMPS:SHP:1,2011-09-01T19:30:00Z,30.0600,-84.2910,0.242,1111122 
COMPS,ioos:station:USF.COMPS:SHP:1,2011-09-01T19:36:00Z,30.0600,-84.2910,0.272,1111122 
COMPS,ioos:station:USF.COMPS:SHP:1,2011-09-01T19:42:00Z,30.0600,-84.2910,0.297,1111122 
COMPS,ioos:station:USF.COMPS:SHP:1,2011-09-01T19:48:00Z,30.0600,-84.2910,0.315,1111122 
COMPS,ioos:station:USF.COMPS:SHP:1,2011-09-01T19:54:00Z,30.0600,-84.2910,0.33,1111122 
COMPS,ioos:station:USF.COMPS:SHP:1,2011-09-01T20:00:00Z,30.0600,-84.2910,0.343,1111122 
COMPS,ioos:station:USF.COMPS:SHP:1,2011-09-01T20:06:00Z,30.0600,-84.2910,0.364,1111122 
COMPS,ioos:station:USF.COMPS:SHP:1,2011-09-01T20:12:00Z,30.0600,-84.2910,0.38,1111122 
COMPS,ioos:station:USF.COMPS:SHP:1,2011-09-01T20:18:00Z,30.0600,-84.2910,0.395,1111122 
COMPS,ioos:station:USF.COMPS:SHP:1,2011-09-01T20:24:00Z,30.0600,-84.2910,0.408,1111122 
COMPS,ioos:station:USF.COMPS:SHP:1,2011-09-01T20:30:00Z,30.0600,-84.2910,0.424,1111122 
COMPS,ioos:station:USF.COMPS:SHP:1,2011-09-01T20:36:00Z,30.0600,-84.2910,0.449,1111122 
COMPS,ioos:station:USF.COMPS:SHP:1,2011-09-01T20:42:00Z,30.0600,-84.2910,0.465,1111122 
COMPS,ioos:station:USF.COMPS:SHP:1,2011-09-01T20:48:00Z,30.0600,-84.2910,0.47,1111122 
COMPS,ioos:station:USF.COMPS:SHP:1,2011-09-01T20:54:00Z,30.0600,-84.2910,0.467,1111122 
COMPS,ioos:station:USF.COMPS:SHP:1,2011-09-01T21:00:00Z,30.0600,-84.2910,0.47,1111122 
COMPS,ioos:station:USF.COMPS:SHP:1,2011-09-01T21:06:00Z,30.0600,-84.2910,0.489,1111122 
COMPS,ioos:station:USF.COMPS:SHP:1,2011-09-01T21:12:00Z,30.0600,-84.2910,0.496,1111122 
COMPS,ioos:station:USF.COMPS:SHP:1,2011-09-01T21:18:00Z,30.0600,-84.2910,0.502,1111122 
COMPS,ioos:station:USF.COMPS:SHP:1,2011-09-01T21:24:00Z,30.0600,-84.2910,0.507,1111122 
COMPS,ioos:station:USF.COMPS:SHP:1,2011-09-01T21:30:00Z,30.0600,-84.2910,0.51,1111122 
COMPS,ioos:station:USF.COMPS:SHP:1,2011-09-01T21:36:00Z,30.0600,-84.2910,0.51,1111122 
COMPS,ioos:station:USF.COMPS:SHP:1,2011-09-01T21:42:00Z,30.0600,-84.2910,0.51,1111122 
COMPS,ioos:station:USF.COMPS:SHP:1,2011-09-01T21:48:00Z,30.0600,-84.2910,0.51,1111122 
COMPS,ioos:station:USF.COMPS:SHP:1,2011-09-01T21:54:00Z,30.0600,-84.2910,0.506,1111122 
COMPS,ioos:station:USF.COMPS:SHP:1,2011-09-01T22:00:00Z,30.0600,-84.2910,0.507,1111122 
COMPS,ioos:station:USF.COMPS:SHP:1,2011-09-01T22:06:00Z,30.0600,-84.2910,0.503,1111122 
COMPS,ioos:station:USF.COMPS:SHP:1,2011-09-01T22:12:00Z,30.0600,-84.2910,0.499,1111122 
COMPS,ioos:station:USF.COMPS:SHP:1,2011-09-01T22:18:00Z,30.0600,-84.2910,0.505,1111122 
COMPS,ioos:station:USF.COMPS:SHP:1,2011-09-01T22:24:00Z,30.0600,-84.2910,0.5,1111122 
COMPS,ioos:station:USF.COMPS:SHP:1,2011-09-01T22:30:00Z,30.0600,-84.2910,0.489,1111122 
COMPS,ioos:station:USF.COMPS:SHP:1,2011-09-01T22:36:00Z,30.0600,-84.2910,0.477,1111122 
COMPS,ioos:station:USF.COMPS:SHP:1,2011-09-01T22:42:00Z,30.0600,-84.2910,0.462,1111122 
COMPS,ioos:station:USF.COMPS:SHP:1,2011-09-01T22:48:00Z,30.0600,-84.2910,0.45,1111122 
COMPS,ioos:station:USF.COMPS:SHP:1,2011-09-01T22:54:00Z,30.0600,-84.2910,0.446,1111122 
COMPS,ioos:station:USF.COMPS:SHP:1,2011-09-01T23:00:00Z,30.0600,-84.2910,0.431,1111122 
COMPS,ioos:station:USF.COMPS:SHP:1,2011-09-01T23:06:00Z,30.0600,-84.2910,0.411,1111122 
COMPS,ioos:station:USF.COMPS:SHP:1,2011-09-01T23:12:00Z,30.0600,-84.2910,0.398,1111122 
COMPS,ioos:station:USF.COMPS:SHP:1,2011-09-01T23:18:00Z,30.0600,-84.2910,0.385,1111122 
COMPS,ioos:station:USF.COMPS:SHP:1,2011-09-01T23:24:00Z,30.0600,-84.2910,0.368,1111122 
COMPS,ioos:station:USF.COMPS:SHP:1,2011-09-01T23:30:00Z,30.0600,-84.2910,0.354,1111122 
COMPS,ioos:station:USF.COMPS:SHP:1,2011-09-01T23:36:00Z,30.0600,-84.2910,0.343,1111122 
COMPS,ioos:station:USF.COMPS:SHP:1,2011-09-01T23:42:00Z,30.0600,-84.2910,0.326,1111122 
COMPS,ioos:station:USF.COMPS:SHP:1,2011-09-01T23:48:00Z,30.0600,-84.2910,0.311,1111122 
COMPS,ioos:station:USF.COMPS:SHP:1,2011-09-01T23:54:00Z,30.0600,-84.2910,0.295,1111122 
COMPS,ioos:station:USF.COMPS:SHP:1,2011-09-02T00:00:00Z,30.0600,-84.2910,0.271,1111122 
COMPS,ioos:station:USF.COMPS:SHP:1,2011-09-02T00:06:00Z,30.0600,-84.2910,0.25,1111122 
COMPS,ioos:station:USF.COMPS:SHP:1,2011-09-02T00:12:00Z,30.0600,-84.2910,0.23,1111122 
COMPS,ioos:station:USF.COMPS:SHP:1,2011-09-02T00:18:00Z,30.0600,-84.2910,0.211,1111122 
COMPS,ioos:station:USF.COMPS:SHP:1,2011-09-02T00:24:00Z,30.0600,-84.2910,0.193,1111122 
COMPS,ioos:station:USF.COMPS:SHP:1,2011-09-02T00:30:00Z,30.0600,-84.2910,0.176,1111122 
COMPS,ioos:station:USF.COMPS:SHP:1,2011-09-02T00:36:00Z,30.0600,-84.2910,0.157,1111122 
COMPS,ioos:station:USF.COMPS:SHP:1,2011-09-02T00:42:00Z,30.0600,-84.2910,0.138,1111122 
COMPS,ioos:station:USF.COMPS:SHP:1,2011-09-02T00:48:00Z,30.0600,-84.2910,0.121,1111122 
COMPS,ioos:station:USF.COMPS:SHP:1,2011-09-02T00:54:00Z,30.0600,-84.2910,0.1,1111122 
COMPS,ioos:station:USF.COMPS:SHP:1,2011-09-02T01:00:00Z,30.0600,-84.2910,0.082,1111122 
COMPS,ioos:station:USF.COMPS:SHP:1,2011-09-02T01:06:00Z,30.0600,-84.2910,0.067,1111122 
COMPS,ioos:station:USF.COMPS:SHP:1,2011-09-02T01:12:00Z,30.0600,-84.2910,0.053,1111122 
COMPS,ioos:station:USF.COMPS:SHP:1,2011-09-02T01:18:00Z,30.0600,-84.2910,0.035,1111122 
COMPS,ioos:station:USF.COMPS:SHP:1,2011-09-02T01:24:00Z,30.0600,-84.2910,0.014,1111122 
COMPS,ioos:station:USF.COMPS:SHP:1,2011-09-02T01:30:00Z,30.0600,-84.2910,-0.003,1111122 
COMPS,ioos:station:USF.COMPS:SHP:1,2011-09-02T01:36:00Z,30.0600,-84.2910,-0.017,1111122 
COMPS,ioos:station:USF.COMPS:SHP:1,2011-09-02T01:42:00Z,30.0600,-84.2910,-0.028,1111122 
COMPS,ioos:station:USF.COMPS:SHP:1,2011-09-02T01:48:00Z,30.0600,-84.2910,-0.038,1111122 
COMPS,ioos:station:USF.COMPS:SHP:1,2011-09-02T01:54:00Z,30.0600,-84.2910,-0.047,1111122 
COMPS,ioos:station:USF.COMPS:SHP:1,2011-09-02T02:00:00Z,30.0600,-84.2910,-0.057,1111122 
COMPS,ioos:station:USF.COMPS:SHP:1,2011-09-02T02:06:00Z,30.0600,-84.2910,-0.068,1111122 
COMPS,ioos:station:USF.COMPS:SHP:1,2011-09-02T02:12:00Z,30.0600,-84.2910,-0.079,1111122 
COMPS,ioos:station:USF.COMPS:SHP:1,2011-09-02T02:18:00Z,30.0600,-84.2910,-0.088,1111122 
COMPS,ioos:station:USF.COMPS:SHP:1,2011-09-02T02:24:00Z,30.0600,-84.2910,-0.093,1111122 
COMPS,ioos:station:USF.COMPS:SHP:1,2011-09-02T02:30:00Z,30.0600,-84.2910,-0.095,1111122 
COMPS,ioos:station:USF.COMPS:SHP:1,2011-09-02T02:36:00Z,30.0600,-84.2910,-0.095,1111122 
COMPS,ioos:station:USF.COMPS:SHP:1,2011-09-02T02:42:00Z,30.0600,-84.2910,-0.1,1111122 
COMPS,ioos:station:USF.COMPS:SHP:1,2011-09-02T02:48:00Z,30.0600,-84.2910,-0.105,1111122 
COMPS,ioos:station:USF.COMPS:SHP:1,2011-09-02T02:54:00Z,30.0600,-84.2910,-0.104,1111122 
COMPS,ioos:station:USF.COMPS:SHP:1,2011-09-02T03:00:00Z,30.0600,-84.2910,-0.098,1111122 
COMPS,ioos:station:USF.COMPS:SHP:1,2011-09-02T03:06:00Z,30.0600,-84.2910,-0.09,1111122 
COMPS,ioos:station:USF.COMPS:SHP:1,2011-09-02T03:12:00Z,30.0600,-84.2910,-0.071,1111122 
COMPS,ioos:station:USF.COMPS:SHP:1,2011-09-02T03:18:00Z,30.0600,-84.2910,-0.054,1111122 
COMPS,ioos:station:USF.COMPS:SHP:1,2011-09-02T03:24:00Z,30.0600,-84.2910,-0.045,1111122 
COMPS,ioos:station:USF.COMPS:SHP:1,2011-09-02T03:30:00Z,30.0600,-84.2910,-0.031,1111122 
COMPS,ioos:station:USF.COMPS:SHP:1,2011-09-02T03:36:00Z,30.0600,-84.2910,-0.021,1111122 
COMPS,ioos:station:USF.COMPS:SHP:1,2011-09-02T03:42:00Z,30.0600,-84.2910,-0.016,1111122 
COMPS,ioos:station:USF.COMPS:SHP:1,2011-09-02T03:48:00Z,30.0600,-84.2910,-0.012,1111122 
COMPS,ioos:station:USF.COMPS:SHP:1,2011-09-02T03:54:00Z,30.0600,-84.2910,-0.002,1111122 
COMPS,ioos:station:USF.COMPS:SHP:1,2011-09-02T04:00:00Z,30.0600,-84.2910,0.008,1111122 
COMPS,ioos:station:USF.COMPS:SHP:1,2011-09-02T04:06:00Z,30.0600,-84.2910,0.02,1111122 
COMPS,ioos:station:USF.COMPS:SHP:1,2011-09-02T04:12:00Z,30.0600,-84.2910,0.036,1111122 
COMPS,ioos:station:USF.COMPS:SHP:1,2011-09-02T04:18:00Z,30.0600,-84.2910,0.045,1111122 
COMPS,ioos:station:USF.COMPS:SHP:1,2011-09-02T04:24:00Z,30.0600,-84.2910,0.057,1111122 
COMPS,ioos:station:USF.COMPS:SHP:1,2011-09-02T04:30:00Z,30.0600,-84.2910,0.078,1111122 
COMPS,ioos:station:USF.COMPS:SHP:1,2011-09-02T04:36:00Z,30.0600,-84.2910,0.093,1111122 
COMPS,ioos:station:USF.COMPS:SHP:1,2011-09-02T04:42:00Z,30.0600,-84.2910,0.114,1111122 
COMPS,ioos:station:USF.COMPS:SHP:1,2011-09-02T04:48:00Z,30.0600,-84.2910,0.138,1111122 
COMPS,ioos:station:USF.COMPS:SHP:1,2011-09-02T04:54:00Z,30.0600,-84.2910,0.155,1111122 
COMPS,ioos:station:USF.COMPS:SHP:1,2011-09-02T05:00:00Z,30.0600,-84.2910,0.174,1111122 
COMPS,ioos:station:USF.COMPS:SHP:1,2011-09-02T05:06:00Z,30.0600,-84.2910,0.189,1111122 
COMPS,ioos:station:USF.COMPS:SHP:1,2011-09-02T05:12:00Z,30.0600,-84.2910,0.196,1111122 
COMPS,ioos:station:USF.COMPS:SHP:1,2011-09-02T05:18:00Z,30.0600,-84.2910,0.21,1111122 
COMPS,ioos:station:USF.COMPS:SHP:1,2011-09-02T05:24:00Z,30.0600,-84.2910,0.231,1111122 
COMPS,ioos:station:USF.COMPS:SHP:1,2011-09-02T05:30:00Z,30.0600,-84.2910,0.247,1111122 
COMPS,ioos:station:USF.COMPS:SHP:1,2011-09-02T05:36:00Z,30.0600,-84.2910,0.257,1111122 
COMPS,ioos:station:USF.COMPS:SHP:1,2011-09-02T05:42:00Z,30.0600,-84.2910,0.271,1111122 
COMPS,ioos:station:USF.COMPS:SHP:1,2011-09-02T05:48:00Z,30.0600,-84.2910,0.294,1111122 
COMPS,ioos:station:USF.COMPS:SHP:1,2011-09-02T05:54:00Z,30.0600,-84.2910,0.318,1111122 
COMPS,ioos:station:USF.COMPS:SHP:1,2011-09-02T06:00:00Z,30.0600,-84.2910,0.338,1111122 
COMPS,ioos:station:USF.COMPS:SHP:1,2011-09-02T06:06:00Z,30.0600,-84.2910,0.337,1111122 
COMPS,ioos:station:USF.COMPS:SHP:1,2011-09-02T06:12:00Z,30.0600,-84.2910,0.335,1111122 
COMPS,ioos:station:USF.COMPS:SHP:1,2011-09-02T06:18:00Z,30.0600,-84.2910,0.345,1111122 
COMPS,ioos:station:USF.COMPS:SHP:1,2011-09-02T06:24:00Z,30.0600,-84.2910,0.37,1111122 
COMPS,ioos:station:USF.COMPS:SHP:1,2011-09-02T06:30:00Z,30.0600,-84.2910,0.376,1111122 
COMPS,ioos:station:USF.COMPS:SHP:1,2011-09-02T06:36:00Z,30.0600,-84.2910,0.372,1111122 
COMPS,ioos:station:USF.COMPS:SHP:1,2011-09-02T06:42:00Z,30.0600,-84.2910,0.368,1111122 
COMPS,ioos:station:USF.COMPS:SHP:1,2011-09-02T06:48:00Z,30.0600,-84.2910,0.375,1111122 
COMPS,ioos:station:USF.COMPS:SHP:1,2011-09-02T06:54:00Z,30.0600,-84.2910,0.398,1111122 
COMPS,ioos:station:USF.COMPS:SHP:1,2011-09-02T07:00:00Z,30.0600,-84.2910,0.429,1111122 
COMPS,ioos:station:USF.COMPS:SHP:1,2011-09-02T07:06:00Z,30.0600,-84.2910,0.446,1111122 
COMPS,ioos:station:USF.COMPS:SHP:1,2011-09-02T07:12:00Z,30.0600,-84.2910,0.45,1111122 
COMPS,ioos:station:USF.COMPS:SHP:1,2011-09-02T07:18:00Z,30.0600,-84.2910,0.455,1111122 
COMPS,ioos:station:USF.COMPS:SHP:1,2011-09-02T07:24:00Z,30.0600,-84.2910,0.472,1111122 
COMPS,ioos:station:USF.COMPS:SHP:1,2011-09-02T07:30:00Z,30.0600,-84.2910,0.481,1111122 
COMPS,ioos:station:USF.COMPS:SHP:1,2011-09-02T07:36:00Z,30.0600,-84.2910,0.48,1111122 
COMPS,ioos:station:USF.COMPS:SHP:1,2011-09-02T07:42:00Z,30.0600,-84.2910,0.486,1111122 
COMPS,ioos:station:USF.COMPS:SHP:1,2011-09-02T07:48:00Z,30.0600,-84.2910,0.502,1111122 
COMPS,ioos:station:USF.COMPS:SHP:1,2011-09-02T07:54:00Z,30.0600,-84.2910,0.515,1111122 
COMPS,ioos:station:USF.COMPS:SHP:1,2011-09-02T09:00:00Z,30.0600,-84.2910,0.592,1111122 
COMPS,ioos:station:USF.COMPS:SHP:1,2011-09-02T09:06:00Z,30.0600,-84.2910,0.601,1111122 
COMPS,ioos:station:USF.COMPS:SHP:1,2011-09-02T09:12:00Z,30.0600,-84.2910,0.609,1111122 
COMPS,ioos:station:USF.COMPS:SHP:1,2011-09-02T09:18:00Z,30.0600,-84.2910,0.61,1111122 
COMPS,ioos:station:USF.COMPS:SHP:1,2011-09-02T09:24:00Z,30.0600,-84.2910,0.621,1111122 
COMPS,ioos:station:USF.COMPS:SHP:1,2011-09-02T09:30:00Z,30.0600,-84.2910,0.627,1111122 
COMPS,ioos:station:USF.COMPS:SHP:1,2011-09-02T09:36:00Z,30.0600,-84.2910,0.626,1111122 
COMPS,ioos:station:USF.COMPS:SHP:1,2011-09-02T09:42:00Z,30.0600,-84.2910,0.629,1111122 
COMPS,ioos:station:USF.COMPS:SHP:1,2011-09-02T09:48:00Z,30.0600,-84.2910,0.622,1111122 
COMPS,ioos:station:USF.COMPS:SHP:1,2011-09-02T09:54:00Z,30.0600,-84.2910,0.616,1111122 
COMPS,ioos:station:USF.COMPS:SHP:1,2011-09-02T10:00:00Z,30.0600,-84.2910,0.613,1111122 
COMPS,ioos:station:USF.COMPS:SHP:1,2011-09-02T10:06:00Z,30.0600,-84.2910,0.613,1111122 
COMPS,ioos:station:USF.COMPS:SHP:1,2011-09-02T10:12:00Z,30.0600,-84.2910,0.606,1111122 
COMPS,ioos:station:USF.COMPS:SHP:1,2011-09-02T10:18:00Z,30.0600,-84.2910,0.598,1111122 
COMPS,ioos:station:USF.COMPS:SHP:1,2011-09-02T10:24:00Z,30.0600,-84.2910,0.595,1111122 
COMPS,ioos:station:USF.COMPS:SHP:1,2011-09-02T10:30:00Z,30.0600,-84.2910,0.591,1111122 
COMPS,ioos:station:USF.COMPS:SHP:1,2011-09-02T10:36:00Z,30.0600,-84.2910,0.582,1111122 
COMPS,ioos:station:USF.COMPS:SHP:1,2011-09-02T10:42:00Z,30.0600,-84.2910,0.571,1111122 
COMPS,ioos:station:USF.COMPS:SHP:1,2011-09-02T10:48:00Z,30.0600,-84.2910,0.561,1111122 
COMPS,ioos:station:USF.COMPS:SHP:1,2011-09-02T10:54:00Z,30.0600,-84.2910,0.549,1111122 
COMPS,ioos:station:USF.COMPS:SHP:1,2011-09-02T11:00:00Z,30.0600,-84.2910,0.535,1111122 
COMPS,ioos:station:USF.COMPS:SHP:1,2011-09-02T11:06:00Z,30.0600,-84.2910,0.52,1111122 
COMPS,ioos:station:USF.COMPS:SHP:1,2011-09-02T11:12:00Z,30.0600,-84.2910,0.504,1111122 
COMPS,ioos:station:USF.COMPS:SHP:1,2011-09-02T11:18:00Z,30.0600,-84.2910,0.487,1111122 
COMPS,ioos:station:USF.COMPS:SHP:1,2011-09-02T11:24:00Z,30.0600,-84.2910,0.468,1111122 
COMPS,ioos:station:USF.COMPS:SHP:1,2011-09-02T11:30:00Z,30.0600,-84.2910,0.451,1111122 
COMPS,ioos:station:USF.COMPS:SHP:1,2011-09-02T11:36:00Z,30.0600,-84.2910,0.427,1111122 
COMPS,ioos:station:USF.COMPS:SHP:1,2011-09-02T11:42:00Z,30.0600,-84.2910,0.401,1111122 
COMPS,ioos:station:USF.COMPS:SHP:1,2011-09-02T11:48:00Z,30.0600,-84.2910,0.387,1111122 
COMPS,ioos:station:USF.COMPS:SHP:1,2011-09-02T11:54:00Z,30.0600,-84.2910,0.374,1111122 
COMPS,ioos:station:USF.COMPS:SHP:1,2011-09-02T12:00:00Z,30.0600,-84.2910,0.354,1111122 
COMPS,ioos:station:USF.COMPS:SHP:1,2011-09-02T12:06:00Z,30.0600,-84.2910,0.331,1111122 
COMPS,ioos:station:USF.COMPS:SHP:1,2011-09-02T12:12:00Z,30.0600,-84.2910,0.309,1111122 
COMPS,ioos:station:USF.COMPS:SHP:1,2011-09-02T12:18:00Z,30.0600,-84.2910,0.289,1111122 
COMPS,ioos:station:USF.COMPS:SHP:1,2011-09-02T12:24:00Z,30.0600,-84.2910,0.267,1111122 
COMPS,ioos:station:USF.COMPS:SHP:1,2011-09-02T12:30:00Z,30.0600,-84.2910,0.245,1111122 
COMPS,ioos:station:USF.COMPS:SHP:1,2011-09-02T12:36:00Z,30.0600,-84.2910,0.224,1111122 
COMPS,ioos:station:USF.COMPS:SHP:1,2011-09-02T12:42:00Z,30.0600,-84.2910,0.2,1111122 
COMPS,ioos:station:USF.COMPS:SHP:1,2011-09-02T12:48:00Z,30.0600,-84.2910,0.175,1111122 
COMPS,ioos:station:USF.COMPS:SHP:1,2011-09-02T12:54:00Z,30.0600,-84.2910,0.154,1111122 
COMPS,ioos:station:USF.COMPS:SHP:1,2011-09-02T13:00:00Z,30.0600,-84.2910,0.132,1111122 
COMPS,ioos:station:USF.COMPS:SHP:1,2011-09-02T13:06:00Z,30.0600,-84.2910,0.107,1111122 
COMPS,ioos:station:USF.COMPS:SHP:1,2011-09-02T13:12:00Z,30.0600,-84.2910,0.084,1111122 
COMPS,ioos:station:USF.COMPS:SHP:1,2011-09-02T13:18:00Z,30.0600,-84.2910,0.063,1111122 
COMPS,ioos:station:USF.COMPS:SHP:1,2011-09-02T13:24:00Z,30.0600,-84.2910,0.041,1111122 
COMPS,ioos:station:USF.COMPS:SHP:1,2011-09-02T13:30:00Z,30.0600,-84.2910,0.018,1111122 
COMPS,ioos:station:USF.COMPS:SHP:1,2011-09-02T13:36:00Z,30.0600,-84.2910,-0.002,1111122 
COMPS,ioos:station:USF.COMPS:SHP:1,2011-09-02T13:42:00Z,30.0600,-84.2910,-0.02,1111122 
COMPS,ioos:station:USF.COMPS:SHP:1,2011-09-02T13:48:00Z,30.0600,-84.2910,-0.037,1111122 
COMPS,ioos:station:USF.COMPS:SHP:1,2011-09-02T13:54:00Z,30.0600,-84.2910,-0.055,1111122 
COMPS,ioos:station:USF.COMPS:SHP:1,2011-09-02T14:00:00Z,30.0600,-84.2910,-0.072,1111122 
COMPS,ioos:station:USF.COMPS:SHP:1,2011-09-02T14:06:00Z,30.0600,-84.2910,-0.088,1111122 
COMPS,ioos:station:USF.COMPS:SHP:1,2011-09-02T14:12:00Z,30.0600,-84.2910,-0.103,1111122 
COMPS,ioos:station:USF.COMPS:SHP:1,2011-09-02T14:18:00Z,30.0600,-84.2910,-0.116,1111122 
COMPS,ioos:station:USF.COMPS:SHP:1,2011-09-02T14:24:00Z,30.0600,-84.2910,-0.131,1111122 
COMPS,ioos:station:USF.COMPS:SHP:1,2011-09-02T14:30:00Z,30.0600,-84.2910,-0.148,1111122 
COMPS,ioos:station:USF.COMPS:SHP:1,2011-09-02T14:36:00Z,30.0600,-84.2910,-0.162,1111122 
COMPS,ioos:station:USF.COMPS:SHP:1,2011-09-02T14:42:00Z,30.0600,-84.2910,-0.176,1111122 
COMPS,ioos:station:USF.COMPS:SHP:1,2011-09-02T14:48:00Z,30.0600,-84.2910,-0.188,1111122 
COMPS,ioos:station:USF.COMPS:SHP:1,2011-09-02T14:54:00Z,30.0600,-84.2910,-0.2,1111122 
COMPS,ioos:station:USF.COMPS:SHP:1,2011-09-02T15:00:00Z,30.0600,-84.2910,-0.211,1111122 
COMPS,ioos:station:USF.COMPS:SHP:1,2011-09-02T15:06:00Z,30.0600,-84.2910,-0.222,1111122 
COMPS,ioos:station:USF.COMPS:SHP:1,2011-09-02T15:12:00Z,30.0600,-84.2910,-0.231,1111122 
COMPS,ioos:station:USF.COMPS:SHP:1,2011-09-02T15:18:00Z,30.0600,-84.2910,-0.242,1111122 
COMPS,ioos:station:USF.COMPS:SHP:1,2011-09-02T15:24:00Z,30.0600,-84.2910,-0.253,1111122 
COMPS,ioos:station:USF.COMPS:SHP:1,2011-09-02T15:30:00Z,30.0600,-84.2910,-0.264,1111122 
COMPS,ioos:station:USF.COMPS:SHP:1,2011-09-02T15:36:00Z,30.0600,-84.2910,-0.275,1111122 
COMPS,ioos:station:USF.COMPS:SHP:1,2011-09-02T15:42:00Z,30.0600,-84.2910,-0.288,1111122 
COMPS,ioos:station:USF.COMPS:SHP:1,2011-09-02T15:48:00Z,30.0600,-84.2910,-0.3,1111122 
COMPS,ioos:station:USF.COMPS:SHP:1,2011-09-02T15:54:00Z,30.0600,-84.2910,-0.313,1111122 
COMPS,ioos:station:USF.COMPS:SHP:1,2011-09-02T16:00:00Z,30.0600,-84.2910,-0.324,1111122 
COMPS,ioos:station:USF.COMPS:SHP:1,2011-09-02T16:06:00Z,30.0600,-84.2910,-0.336,1111122 
COMPS,ioos:station:USF.COMPS:SHP:1,2011-09-02T16:12:00Z,30.0600,-84.2910,-0.344,1111122 
COMPS,ioos:station:USF.COMPS:SHP:1,2011-09-02T16:18:00Z,30.0600,-84.2910,-0.351,1111122 
COMPS,ioos:station:USF.COMPS:SHP:1,2011-09-02T16:24:00Z,30.0600,-84.2910,-0.358,1111122 
COMPS,ioos:station:USF.COMPS:SHP:1,2011-09-02T16:30:00Z,30.0600,-84.2910,-0.364,1111122 
COMPS,ioos:station:USF.COMPS:SHP:1,2011-09-02T16:36:00Z,30.0600,-84.2910,-0.371,1111122 
COMPS,ioos:station:USF.COMPS:SHP:1,2011-09-02T16:42:00Z,30.0600,-84.2910,-0.373,1111122 
COMPS,ioos:station:USF.COMPS:SHP:1,2011-09-02T16:48:00Z,30.0600,-84.2910,-0.372,1111122 
COMPS,ioos:station:USF.COMPS:SHP:1,2011-09-02T16:54:00Z,30.0600,-84.2910,-0.369,1111122 
COMPS,ioos:station:USF.COMPS:SHP:1,2011-09-02T17:00:00Z,30.0600,-84.2910,-0.361,1111122 
COMPS,ioos:station:USF.COMPS:SHP:1,2011-09-02T17:06:00Z,30.0600,-84.2910,-0.35,1111122 
COMPS,ioos:station:USF.COMPS:SHP:1,2011-09-02T17:12:00Z,30.0600,-84.2910,-0.341,1111122 
COMPS,ioos:station:USF.COMPS:SHP:1,2011-09-02T17:18:00Z,30.0600,-84.2910,-0.333,1111122 
COMPS,ioos:station:USF.COMPS:SHP:1,2011-09-02T17:24:00Z,30.0600,-84.2910,-0.327,1111122 
COMPS,ioos:station:USF.COMPS:SHP:1,2011-09-02T17:30:00Z,30.0600,-84.2910,-0.32,1111122 
COMPS,ioos:station:USF.COMPS:SHP:1,2011-09-02T17:36:00Z,30.0600,-84.2910,-0.31,1111122 
COMPS,ioos:station:USF.COMPS:SHP:1,2011-09-02T17:42:00Z,30.0600,-84.2910,-0.302,1111122 
COMPS,ioos:station:USF.COMPS:SHP:1,2011-09-02T17:48:00Z,30.0600,-84.2910,-0.292,1111122 
COMPS,ioos:station:USF.COMPS:SHP:1,2011-09-02T17:54:00Z,30.0600,-84.2910,-0.283,1111122 
COMPS,ioos:station:USF.COMPS:SHP:1,2011-09-02T18:00:00Z,30.0600,-84.2910,-0.268,1111122 
COMPS,ioos:station:USF.COMPS:SHP:1,2011-09-02T18:06:00Z,30.0600,-84.2910,-0.25,1111122 
COMPS,ioos:station:USF.COMPS:SHP:1,2011-09-02T18:12:00Z,30.0600,-84.2910,-0.225,1111122 
COMPS,ioos:station:USF.COMPS:SHP:1,2011-09-02T18:18:00Z,30.0600,-84.2910,-0.195,1111122 
COMPS,ioos:station:USF.COMPS:SHP:1,2011-09-02T18:24:00Z,30.0600,-84.2910,-0.171,1111122 
COMPS,ioos:station:USF.COMPS:SHP:1,2011-09-02T18:30:00Z,30.0600,-84.2910,-0.152,1111122 
COMPS,ioos:station:USF.COMPS:SHP:1,2011-09-02T18:36:00Z,30.0600,-84.2910,-0.132,1111122 
COMPS,ioos:station:USF.COMPS:SHP:1,2011-09-02T18:42:00Z,30.0600,-84.2910,-0.114,1111122 
COMPS,ioos:station:USF.COMPS:SHP:1,2011-09-02T18:48:00Z,30.0600,-84.2910,-0.096,1111122 
COMPS,ioos:station:USF.COMPS:SHP:1,2011-09-02T18:54:00Z,30.0600,-84.2910,-0.076,1111122 
COMPS,ioos:station:USF.COMPS:SHP:1,2011-09-02T19:00:00Z,30.0600,-84.2910,-0.052,1111122 